Regional Weather Roundup
Issued by NWS Green Bay, WI

Home | Current Version | Previous Version | Graphics & Text | Print | Product List | Glossary Off
Versions: 1 2 3 4 5 6 7 8 9 10 11 12 13 14 15 16 17 18 19 20 21 22 23 24 25 26 27 28 29 30 31 32 33 34 35 36 37 38 39 40 41 42 43 44 45 46 47 48 49 50

000
ASUS43 KGRB 012310
RWRGRB

NORTH-CENTRAL AND NORTHEAST WISCONSIN REGIONAL WEATHER ROUNDUP
NATIONAL WEATHER SERVICE GREEN BAY WI
600 PM CDT FRI AUG 01 2014

WIZ005-009-010>012-018-019-020000-
NORTH CENTRAL WISCONSIN

CITY           SKY/WX    TMP DP  RH WIND       PRES   REMARKS
IRONWOOD       NOT AVBL
MANITOWISH WTR NOT AVBL
ARBOR VITAE    MOSUNNY   78  53  40 N8        30.09S
EAGLE RIVER    NOT AVBL
LAND O LAKES   NOT AVBL
RHINELANDER    SUNNY     76  53  44 NW5       30.09R
PHILLIPS       NOT AVBL
ANTIGO         CLOUDY    76  56  51 N3        30.08R
TOMAHAWK       NOT AVBL
MERRILL        NOT AVBL
$$

WIZ013-073-020000-
NORTHEAST WISCONSIN

CITY           SKY/WX    TMP DP  RH WIND       PRES   REMARKS
IRON MOUNTAIN  MOSUNNY   79  48  33 W7        30.05S
MARINETTE      PTSUNNY   72  64  78 E7        30.04R
$$

WIZ017-030-035>037-045-020000-
CENTRAL WISCONSIN

CITY           SKY/WX    TMP DP  RH WIND       PRES   REMARKS
MEDFORD        NOT AVBL
WAUSAU         PTSUNNY   75  63  66 CALM      30.05S
MOSINEE        MOSUNNY   70  63  78 S5        30.09R
MARSHFIELD     CLOUDY    69  60  73 CALM      30.07F
WISC RAPIDS    LGT RAIN  66  58  75 S9        30.11R
STEVENS POINT  NOT AVBL
WAUPACA        NOT AVBL
SHAWANO        NOT AVBL
CLINTONVILLE   NOT AVBL
$$

WIZ038-039-048-051-020000-
FOX VALLEY

CITY           SKY/WX    TMP DP  RH WIND       PRES   REMARKS
NWS GREEN BAY  CLOUDY    74  67  78 SW3       30.05R
APPLETON       CLOUDY    70  59  68 W12       30.07R
OSHKOSH        CLOUDY    73  66  78 SW8       30.04F
FOND DU LAC    CLOUDY    75  62  64 SW5       30.06R
$$

WIZ022-050-052-020000-
EAST CENTRAL WISCONSIN

CITY           SKY/WX    TMP DP  RH WIND       PRES   REMARKS
STURGEON BAY   CLOUDY    72  63  73 S8        30.07R
MANITOWOC      CLOUDY    68  61  78 SE5       30.07R
SHEBOYGAN      CLOUDY    71  61  70 S10       30.07R
$$

LMZ563-521-522-541>543-020000-
LAKESHORE

STATION/POSITION TIME  TEMP    WIND        PRES    VSBY  WAVE
                       AIR SEA DIR/SP/G                  HT/PER
                 (UTC) (F)     (DEG/KT/KT) (MB)    (MI)  (FT/S)
SHEBOYGAN LKSHOR 2300   71     210/  9/ 10 1017.8S
KEWAUNEE LKSHORE 2300   64     140/  6/  7 1017.3R
ALGOMA MARINA    2300             CALM       N/A
NORTHPORT PIER   2300   65     130/  7/  8 1017.9R
N MID LAKE BUOY  2300   64 62  160/  4/  4 1017.5F         0
S GREEN BAY BUOY 2200   74 69  120/  8     1018.2S
SISTER BAY LKSHO 2200   70     110/ 10/ 13   N/A
CHAMBERS ISLAND  2300   73     100/  3/  5 1017.3S
MENOMINEE LKSHOR 2300   72      40/  3/  5 1018.0R
$$


USA.gov is the U.S. government's official web portal to all federal, state and local government web resources and services.